Back to catalog

SL-8 DEB

AliveLEO
NORAD 22840·DEBRIS·🇷🇺 Russia

Launched Feb 12, 1991 from Plesetsk Cosmodrome

Loading…

Next Passes (next 24 hours)

TLE

FreshSource: Space-Track

Epoch: Sep 14, 2026, 05:39 UTC

1 22840U 91009CK  26257.23575060  .00000226  00000-0  17265-2 0  9998
2 22840  73.9553 188.0602 0169635   5.3578 148.6160 12.39996829540691

Track SL-8 DEB in real time with AllMySat

Download on the App Store